FW7813 Weather Reports


time (UTC)temp
F
wind
direction
speed
knots
gust
knots
rain 1hr
in
rain 24hr
in
rain mn
in
humidity
%
barometer
mb
20260507104029 38 0 0.0 0.0 0.00 0.00 0.00 87 1020.9
20260507103534 38 0 0.0 0.0 0.00 0.00 0.00 87 1021.0
20260507103112 38 0 0.0 0.0 0.00 0.00 0.00 87 1020.9
20260507102529 38 0 0.0 0.0 0.00 0.00 0.00 87 1021.0
20260507102032 38 0 0.0 0.0 0.00 0.00 0.00 87 1020.9
20260507101545 39 0 0.0 0.0 0.00 0.00 0.00 87 1020.9
20260507101032 39 0 0.0 0.0 0.00 0.00 0.00 87 1021.1
20260507100531 39 0 0.0 0.0 0.00 0.00 0.00 86 1021.1
20260507100058 39 0 0.0 0.0 0.00 0.00 0.00 86 1021.0
20260507095534 39 0 0.0 0.0 0.00 0.00 0.00 85 1021.1
20260507095034 39 0 0.0 0.9 0.00 0.00 0.00 85 1021.0
20260507094547 39 0 0.0 0.9 0.00 0.00 0.00 85 1020.9
20260507094028 39 0 0.0 0.0 0.00 0.00 0.00 84 1021.0
20260507093531 39 0 0.0 2.6 0.00 0.00 0.00 84 1020.9
20260507093042 39 0 0.0 2.6 0.00 0.00 0.00 83 1020.9
20260507092531 40 0 0.0 0.0 0.00 0.00 0.00 81 1020.8
20260507092028 40 0 0.0 0.0 0.00 0.00 0.00 81 1020.7
20260507091544 40 0 0.0 0.0 0.00 0.00 0.00 81 1020.6
20260507091034 41 0 0.0 0.0 0.00 0.00 0.00 81 1020.6
20260507090535 41 0 0.0 0.0 0.00 0.00 0.00 81 1020.6
20260507090054 42 0 0.0 0.0 0.00 0.00 0.00 80 1020.6
20260507085534 42 0 0.0 0.0 0.00 0.00 0.00 80 1020.6
20260507085035 42 0 0.0 0.0 0.00 0.00 0.00 80 1020.6
20260507084548 43 0 0.0 0.0 0.00 0.00 0.00 80 1020.5
20260507084030 43 0 0.0 0.0 0.00 0.00 0.00 80 1020.6
20260507083529 43 0 0.0 0.0 0.00 0.00 0.00 79 1020.6
20260507083045 44 0 0.0 0.0 0.00 0.00 0.00 80 1020.7
20260507082528 44 0 0.0 0.0 0.00 0.00 0.00 79 1020.7
20260507082028 44 0 0.0 0.9 0.00 0.00 0.00 80 1020.7
20260507081544 44 0 0.0 1.7 0.00 0.00 0.00 79 1020.8
20260507081029 44 0 0.0 1.7 0.00 0.00 0.00 79 1020.6
20260507080533 45 0 0.0 0.9 0.00 0.00 0.00 79 1020.7
20260507080053 45 0 0.0 2.6 0.00 0.00 0.00 78 1020.8
20260507075529 45 0 0.0 2.6 0.00 0.00 0.00 77 1020.9
20260507075032 45 0 0.0 2.6 0.00 0.00 0.00 77 1020.7
20260507074540 45 105 0.0 3.5 0.00 0.00 0.00 76 1020.6
20260507074028 45 0 0.9 3.5 0.00 0.00 0.00 75 1020.5
20260507073536 45 0 0.0 2.6 0.00 0.00 0.00 75 1021.0
20260507073042 46 319 0.0 4.3 0.00 0.00 0.00 74 1021.7
20260507072529 46 307 0.9 4.3 0.00 0.00 0.00 73 1021.8
20260507072029 46 304 0.9 3.5 0.00 0.00 0.00 71 1021.5
20260507071549 46 49 0.0 4.3 0.00 0.00 0.00 70 1021.5
20260507071029 47 0 0.9 4.3 0.00 0.00 0.00 69 1021.5
20260507070532 47 0 0.9 4.3 0.00 0.00 0.00 68 1021.7
20260507065528 47 298 0.9 6.1 0.00 0.00 0.00 67 1022.1
20260507065028 47 336 1.7 5.2 0.00 0.00 0.00 67 1022.2
20260507064552 47 323 0.0 4.3 0.00 0.00 0.00 66 1022.0
20260507064029 47 14 0.0 4.3 0.00 0.00 0.00 65 1021.8
20260507063529 47 0 0.9 4.3 0.00 0.00 0.00 65 1021.9
20260507063044 47 19 0.0 3.5 0.00 0.00 0.00 64 1021.8
20260507062528 47 19 0.0 3.5 0.00 0.00 0.00 64 1021.7
20260507062028 47 0 0.9 3.5 0.00 0.00 0.00 64 1021.8
20260507061544 47 311 0.9 2.6 0.00 0.00 0.00 64 1021.8
20260507061033 47 77 0.0 3.5 0.00 0.00 0.00 64 1021.6
20260507060528 47 0 0.0 3.5 0.00 0.00 0.00 64 1021.4
20260507060044 47 43 0.9 3.5 0.00 0.00 0.00 64 1021.3
20260507055528 47 47 0.9 7.0 0.00 0.00 0.00 64 1021.3
20260507055029 48 53 0.9 7.0 0.00 0.00 0.00 63 1021.1
20260507054559 48 0 0.9 6.1 0.00 0.00 0.00 63 1021.1
20260507054031 48 327 1.7 6.1 0.00 0.00 0.00 63 1021.4
20260507053529 48 346 1.7 7.8 0.00 0.00 0.00 63 1021.3
20260507053038 47 25 0.9 8.7 0.00 0.00 0.00 63 1021.2
20260507052532 47 97 1.7 8.7 0.00 0.00 0.00 63 1021.1
20260507052031 47 89 0.0 4.3 0.00 0.00 0.00 63 1021.1
20260507051546 47 0 0.9 5.2 0.00 0.00 0.00 64 1021.1
20260507051029 47 0 0.9 5.2 0.00 0.00 0.00 63 1021.0
20260507050530 48 82 0.9 5.2 0.00 0.00 0.00 63 1021.0
20260507050050 48 325 0.9 7.8 0.00 0.00 0.00 62 1020.9
20260507045529 48 317 1.7 7.8 0.00 0.00 0.00 62 1021.1
20260507045029 48 288 1.7 6.1 0.00 0.00 0.00 61 1021.4
20260507044552 49 306 1.7 7.0 0.00 0.00 0.00 60 1021.4
20260507044028 49 315 1.7 7.0 0.00 0.00 0.00 60 1021.1
20260507043528 49 316 1.7 6.1 0.00 0.00 0.00 60 1021.3
20260507043047 49 5 1.7 7.8 0.00 0.00 0.00 60 1021.0
20260507042528 49 284 0.9 8.7 0.00 0.00 0.00 60 1020.9
20260507042028 49 49 1.7 8.7 0.00 0.00 0.00 59 1020.8
20260507041558 49 121 1.7 7.0 0.00 0.00 0.00 59 1020.7
20260507041033 49 30 0.9 7.0 0.00 0.00 0.00 59 1020.6
20260507040528 50 77 1.7 7.0 0.00 0.00 0.00 58 1020.4
20260507040045 50 301 1.7 7.8 0.00 0.00 0.00 58 1020.4
20260507035531 50 0 1.7 7.8 0.00 0.00 0.00 58 1020.6
20260507035029 50 317 1.7 7.8 0.00 0.00 0.00 58 1020.6
20260507034551 51 315 1.7 7.8 0.00 0.00 0.00 58 1020.5
20260507034028 51 63 1.7 9.6 0.00 0.00 0.00 57 1020.4
20260507033528 51 313 2.6 9.6 0.00 0.00 0.00 57 1020.3
20260507033045 51 346 1.7 7.0 0.00 0.00 0.00 58 1020.3
20260507032528 52 0 0.9 7.0 0.00 0.00 0.00 59 1020.2
20260507032028 52 68 0.9 7.0 0.00 0.00 0.00 59 1020.2
20260507031542 52 0 1.7 7.0 0.00 0.00 0.00 58 1020.2
20260507031028 52 304 1.7 8.7 0.00 0.00 0.00 57 1019.9
20260507030529 53 11 1.7 8.7 0.00 0.00 0.00 55 1019.7
20260507030046 53 65 2.6 7.8 0.00 0.00 0.00 54 1019.7
20260507025527 53 309 2.6 7.8 0.00 0.00 0.00 54 1019.5
20260507025029 53 255 1.7 7.8 0.00 0.00 0.00 53 1019.4
20260507024549 54 17 1.7 9.6 0.00 0.00 0.00 53 1019.4
20260507024028 54 310 1.7 11.3 0.00 0.00 0.00 52 1019.4
20260507023528 54 318 0.9 11.3 0.00 0.00 0.00 52 1018.9
20260507023044 55 291 2.6 11.3 0.00 0.00 0.00 52 1018.8
20260507022529 55 34 0.9 7.0 0.00 0.00 0.00 52 1018.7
20260507022029 55 34 1.7 7.0 0.00 0.00 0.00 52 1018.6
20260507021549 55 332 1.7 5.2 0.00 0.00 0.00 53 1018.4
20260507021028 55 286 0.9 5.2 0.00 0.00 0.00 53 1018.2
20260507020528 55 337 0.9 5.2 0.00 0.00 0.00 53 1018.2
20260507020050 55 319 0.9 6.1 0.00 0.00 0.00 53 1018.0
20260507015528 55 312 0.9 6.1 0.00 0.00 0.00 52 1017.8
20260507015029 55 0 0.0 7.0 0.00 0.00 0.00 52 1017.7
20260507014606 56 101 1.7 7.8 0.00 0.00 0.00 52 1017.2
20260507014028 56 51 1.7 7.8 0.00 0.00 0.00 52 1017.2
20260507013527 56 67 1.7 5.2 0.00 0.00 0.00 51 1016.8
20260507013048 56 121 0.9 5.2 0.00 0.00 0.00 51 1016.6
20260507012529 57 58 0.9 6.1 0.00 0.00 0.00 50 1016.2
20260507012032 57 77 1.7 8.7 0.00 0.00 0.00 50 1016.2
20260507011555 57 70 2.6 8.7 0.00 0.00 0.00 50 1016.0
20260507011028 57 38 2.6 8.7 0.00 0.00 0.00 50 1016.1
20260507010528 57 61 3.5 11.3 0.00 0.00 0.00 49 1015.9
20260507010046 58 69 2.6 11.3 0.00 0.00 0.00 49 1015.6
20260507005533 58 86 5.2 11.3 0.00 0.00 0.00 49 1015.6
20260507005028 58 41 2.6 7.8 0.00 0.00 0.00 49 1015.4
20260507004540 58 16 2.6 7.8 0.00 0.00 0.00 49 1015.5
20260507004028 58 96 2.6 8.7 0.00 0.00 0.00 49 1015.5
20260507003529 58 54 2.6 8.7 0.00 0.00 0.00 49 1015.4
20260507003038 59 31 1.7 8.7 0.00 0.00 0.00 48 1015.2
20260507002528 59 108 2.6 10.4 0.00 0.00 0.00 48 1015.2
20260507002030 59 22 1.7 10.4 0.00 0.00 0.00 48 1015.2
20260507001558 59 126 2.6 9.6 0.00 0.00 0.00 49 1015.0
20260507001027 59 51 3.5 9.6 0.00 0.00 0.00 48 1014.8
20260507000531 59 80 2.6 9.6 0.00 0.00 0.00 48 1014.8
20260507000057 59 44 4.3 13.0 0.00 0.00 0.00 48 1014.7
20260506235530 59 44 4.3 13.0 0.00 0.00 0.00 48 1014.6
20260506235028 59 88 5.2 13.0 0.00 0.00 0.00 47 1014.6
20260506234601 60 57 1.7 7.0 0.00 0.00 0.00 48 1014.5
20260506234028 59 105 2.6 10.4 0.00 0.00 0.00 48 1014.6
20260506233529 59 74 1.7 11.3 0.00 0.00 0.00 48 1014.9
20260506233048 59 56 4.3 11.3 0.00 0.00 0.00 48 1015.1
20260506232529 60 53 3.5 12.2 0.00 0.00 0.00 48 1015.0
20260506232028 60 119 3.5 12.2 0.00 0.00 0.00 48 1015.0
20260506231543 60 62 5.2 12.2 0.00 0.00 0.00 47 1014.9
20260506231029 60 55 3.5 10.4 0.00 0.00 0.00 47 1014.7
20260506230529 60 52 3.5 10.4 0.00 0.00 0.00 47 1014.7
20260506230100 60 53 4.3 10.4 0.00 0.00 0.00 47 1014.6
20260506225529 60 25 3.5 10.4 0.00 0.00 0.00 47 1014.7
20260506225028 60 317 2.6 12.2 0.00 0.00 0.00 48 1014.8
20260506224550 59 78 3.5 12.2 0.00 0.00 0.00 48 1015.0
20260506224027 59 59 3.5 13.9 0.00 0.00 0.00 49 1015.1
20260506223531 59 86 5.2 13.9 0.00 0.00 0.00 49 1015.1
20260506223044 59 54 6.1 13.9 0.00 0.00 0.00 48 1015.1
20260506222530 60 53 5.2 11.3 0.00 0.00 0.00 48 1015.1
20260506222031 59 115 3.5 13.0 0.00 0.00 0.00 49 1015.1
20260506221555 59 40 5.2 13.0 0.00 0.00 0.00 49 1015.1
20260506221028 60 59 4.3 13.9 0.00 0.00 0.00 48 1015.2
20260506220528 59 74 4.3 13.9 0.00 0.00 0.00 48 1015.0
20260506220047 59 92 6.1 13.9 0.00 0.00 0.00 48 1015.1
20260506215528 59 43 4.3 12.2 0.00 0.00 0.00 49 1015.1
20260506215028 59 50 4.3 13.9 0.00 0.00 0.00 49 1015.2
20260506214543 59 57 6.1 13.9 0.00 0.00 0.00 49 1015.4
20260506214029 60 68 6.1 13.9 0.00 0.00 0.00 48 1015.1
20260506213528 59 62 5.2 13.0 0.00 0.00 0.00 48 1015.1
20260506213044 60 103 6.1 12.2 0.00 0.00 0.00 48 1015.1
20260506212528 60 59 3.5 11.3 0.00 0.00 0.00 48 1015.3
20260506212030 60 53 7.0 12.2 0.00 0.00 0.00 47 1015.3
20260506211553 60 23 2.6 13.0 0.00 0.00 0.00 48 1015.3
20260506211028 60 80 3.5 13.9 0.00 0.00 0.00 48 1015.4
20260506210528 60 68 4.3 13.9 0.00 0.00 0.00 48 1015.4
20260506210047 60 91 5.2 11.3 0.00 0.00 0.00 48 1015.5
20260506205529 60 99 4.3 11.3 0.00 0.00 0.00 48 1015.5
20260506205029 59 78 1.7 10.4 0.00 0.00 0.00 50 1015.6
20260506204546 59 115 3.5 15.6 0.00 0.00 0.00 49 1015.7
20260506204029 59 95 7.0 15.6 0.00 0.00 0.00 48 1015.5
20260506203528 61 92 4.3 12.2 0.00 0.00 0.00 46 1015.3
20260506203044 61 63 3.5 9.6 0.00 0.00 0.00 46 1015.4
20260506202528 60 91 3.5 9.6 0.00 0.00 0.00 47 1015.4
20260506202028 60 80 2.6 12.2 0.00 0.00 0.00 47 1015.3
20260506201542 60 114 1.7 13.9 0.00 0.00 0.00 48 1015.4
20260506201027 60 67 3.5 13.9 0.00 0.00 0.00 48 1015.4
20260506200528 59 114 4.3 13.9 0.00 0.00 0.00 48 1015.3
20260506200038 59 98 3.5 10.4 0.00 0.00 0.00 49 1015.4
20260506195528 60 66 4.3 10.4 0.00 0.00 0.00 48 1015.4
20260506195028 60 28 4.3 10.4 0.00 0.00 0.00 47 1015.4
20260506194546 59 35 1.7 9.6 0.00 0.00 0.00 49 1015.6
20260506194030 59 65 3.5 10.4 0.00 0.00 0.00 49 1015.7
20260506193527 59 13 3.5 10.4 0.00 0.00 0.00 49 1015.7
20260506193051 59 109 3.5 8.7 0.00 0.00 0.00 49 1015.7
20260506192527 59 51 1.7 8.7 0.00 0.00 0.00 48 1015.8
20260506192029 60 55 2.6 8.7 0.00 0.00 0.00 47 1015.8
20260506191542 59 340 2.6 10.4 0.00 0.00 0.00 49 1015.8
20260506191030 59 59 1.7 13.0 0.00 0.00 0.00 49 1015.8
20260506190529 58 15 0.9 13.0 0.00 0.00 0.00 51 1015.9
20260506190043 58 78 4.3 13.0 0.00 0.00 0.00 49 1015.9
20260506185528 58 24 2.6 12.2 0.00 0.00 0.00 51 1015.8
20260506185031 58 94 3.5 10.4 0.00 0.00 0.00 50 1015.7
20260506184542 57 93 1.7 10.4 0.00 0.00 0.00 52 1015.9
20260506184028 56 0 3.5 10.4 0.00 0.00 0.00 52 1016.1
20260506183529 57 101 1.7 11.3 0.00 0.00 0.00 51 1016.1
20260506183038 57 38 3.5 11.3 0.00 0.00 0.00 52 1016.3
20260506182528 58 71 3.5 12.2 0.00 0.00 0.00 50 1016.3
20260506182028 58 68 5.2 12.2 0.00 0.00 0.00 50 1016.4
20260506181557 58 109 2.6 8.7 0.00 0.00 0.00 50 1016.4
20260506181030 57 45 2.6 8.7 0.00 0.00 0.00 52 1016.4
20260506180528 58 355 1.7 8.7 0.00 0.00 0.00 51 1016.6
20260506180045 58 82 1.7 8.7 0.00 0.00 0.00 50 1016.5
20260506175529 59 88 2.6 8.7 0.00 0.00 0.00 49 1016.5
20260506175029 58 82 0.9 7.0 0.00 0.00 0.00 51 1016.6
20260506174542 57 126 1.7 7.0 0.00 0.00 0.00 52 1016.6
20260506174033 57 46 1.7 6.1 0.00 0.00 0.00 52 1016.6
20260506173532 57 91 1.7 7.0 0.00 0.00 0.00 52 1016.9
20260506173112 57 16 2.6 7.8 0.00 0.00 0.00 51 1016.5
20260506172529 57 61 1.7 7.8 0.00 0.00 0.00 53 1016.6
20260506172028 55 91 0.9 6.1 0.00 0.00 0.00 53 1016.8
20260506171543 56 71 0.9 8.7 0.00 0.00 0.00 52 1016.6
20260506171028 56 144 1.7 8.7 0.00 0.00 0.00 54 1016.6
20260506170529 56 102 3.5 8.7 0.00 0.00 0.00 52 1016.8
20260506170052 56 147 2.6 8.7 0.00 0.00 0.00 54 1016.8
20260506165529 55 79 0.9 7.8 0.00 0.00 0.00 55 1016.7
20260506165030 54 78 0.9 8.7 0.00 0.00 0.00 55 1016.8
20260506164545 54 0 0.9 8.7 0.00 0.00 0.00 56 1016.8
20260506164031 55 78 3.5 8.7 0.00 0.00 0.00 53 1016.8
20260506163529 56 0 0.9 9.6 0.00 0.00 0.00 54 1016.7
20260506163053 55 56 1.7 9.6 0.00 0.00 0.00 55 1016.7
20260506162529 55 90 1.7 6.1 0.00 0.00 0.00 55 1016.7
20260506162029 54 342 0.9 6.1 0.00 0.00 0.00 56 1016.7
20260506161544 53 5 1.7 7.0 0.00 0.00 0.00 58 1016.7
20260506161029 53 98 2.6 7.0 0.00 0.00 0.00 56 1016.5
20260506160529 54 251 2.6 7.0 0.00 0.00 0.00 56 1016.4
20260506160044 54 46 0.9 6.1 0.00 0.00 0.00 57 1016.4
20260506155531 52 67 0.9 6.1 0.00 0.00 0.00 61 1016.4
20260506155032 51 40 1.7 6.1 0.00 0.00 0.00 62 1016.4
20260506154604 50 0 0.9 6.1 0.00 0.00 0.00 61 1016.4
20260506154034 51 90 1.7 6.1 0.00 0.00 0.00 61 1016.4
20260506153532 50 106 0.0 5.2 0.00 0.00 0.00 61 1016.2
20260506153038 50 0 0.0 7.0 0.00 0.00 0.00 62 1016.2
20260506152532 50 126 0.9 7.0 0.00 0.00 0.00 62 1016.2
20260506152033 49 0 1.7 7.0 0.00 0.00 0.00 64 1016.1
20260506151546 49 150 1.7 6.1 0.00 0.00 0.00 63 1016.2
20260506151033 49 0 1.7 6.1 0.00 0.00 0.00 63 1016.3
20260506150531 49 0 0.9 3.5 0.00 0.00 0.00 63 1016.3
20260506150044 49 0 0.0 5.2 0.00 0.00 0.00 64 1016.3
20260506145532 48 83 0.0 6.1 0.00 0.00 0.00 65 1016.2
20260506145033 48 84 0.9 6.1 0.00 0.00 0.00 64 1016.1
20260506144551 48 111 0.9 6.1 0.00 0.00 0.00 64 1016.0
20260506144029 48 0 0.9 6.1 0.00 0.00 0.00 64 1015.9
20260506143529 48 159 0.9 6.1 0.00 0.00 0.00 64 1015.8
20260506143041 48 70 0.9 7.0 0.00 0.00 0.00 64 1015.6
20260506142533 48 80 0.9 7.0 0.00 0.00 0.00 64 1015.5
20260506142034 48 101 1.7 7.0 0.00 0.00 0.00 63 1015.3
20260506141541 48 28 1.7 8.7 0.00 0.00 0.00 66 1015.1
20260506141033 47 77 1.7 8.7 0.00 0.00 0.00 65 1015.2
20260506140531 46 71 2.6 8.7 0.00 0.00 0.00 67 1015.5
20260506140039 46 65 1.7 7.0 0.00 0.00 0.00 67 1015.4
20260506135530 46 46 2.6 8.7 0.00 0.00 0.00 67 1015.4
20260506135031 46 74 1.7 8.7 0.00 0.00 0.00 68 1015.5
20260506134544 45 67 1.7 7.8 0.00 0.00 0.00 67 1015.5
20260506134033 45 118 1.7 7.0 0.00 0.00 0.00 68 1015.4
20260506133532 45 46 1.7 7.0 0.00 0.00 0.00 68 1015.5
20260506133056 44 82 0.9 7.0 0.00 0.00 0.00 69 1015.5
20260506132532 44 155 0.9 7.0 0.00 0.00 0.00 69 1015.7
20260506132033 44 0 0.9 5.2 0.00 0.00 0.00 70 1015.8
20260506131545 44 77 0.9 5.2 0.00 0.00 0.00 70 1016.0
20260506131029 44 28 0.9 5.2 0.00 0.00 0.00 71 1016.2
20260506130533 44 67 0.9 5.2 0.00 0.00 0.00 71 1016.1
20260506130043 43 219 0.9 4.3 0.00 0.00 0.00 71 1016.0
20260506125529 43 61 0.9 5.2 0.00 0.00 0.00 71 1016.1
20260506125029 43 51 0.9 6.1 0.00 0.00 0.00 72 1016.0
20260506124542 43 98 0.9 6.1 0.00 0.00 0.00 72 1015.9
20260506124029 43 46 0.9 4.3 0.00 0.00 0.00 72 1016.0
20260506123529 43 86 0.9 5.2 0.00 0.00 0.00 72 1016.0
20260506123047 43 70 0.0 5.2 0.00 0.00 0.00 72 1016.2
20260506122530 43 69 0.9 6.1 0.00 0.00 0.00 72 1015.9
20260506122031 43 0 0.9 6.1 0.00 0.00 0.00 73 1015.7
20260506121545 43 98 0.9 6.1 0.00 0.00 0.00 73 1015.8
20260506121031 43 78 0.9 6.1 0.00 0.00 0.00 73 1015.8
20260506120530 43 71 0.9 5.2 0.00 0.00 0.00 73 1015.6
20260506120044 43 104 0.9 5.2 0.00 0.00 0.00 73 1015.4
20260506115531 43 76 0.9 7.0 0.00 0.00 0.00 72 1015.4
20260506115033 43 62 1.7 7.0 0.00 0.00 0.00 72 1015.4
20260506114548 43 0 0.9 6.1 0.00 0.00 0.00 74 1015.4
20260506114031 42 64 0.9 4.3 0.00 0.00 0.00 74 1015.4
20260506113530 42 88 0.9 4.3 0.00 0.00 0.00 75 1015.4
20260506113048 42 0 0.9 4.3 0.00 0.00 0.00 77 1015.3
20260506112531 42 0 0.9 4.3 0.00 0.00 0.00 79 1015.1
20260506112029 42 79 0.9 7.0 0.00 0.00 0.00 80 1015.1
20260506111540 42 65 0.9 7.0 0.00 0.00 0.00 80 1015.0
20260506111032 42 77 1.7 4.3 0.00 0.00 0.00 81 1015.0
20260506110532 42 96 0.9 5.2 0.00 0.00 0.00 81 1015.2
20260506110047 42 0 1.7 5.2 0.00 0.00 0.00 81 1015.3
20260506105532 42 116 0.9 5.2 0.00 0.00 0.00 82 1015.2
20260506105033 42 90 0.9 8.7 0.00 0.00 0.00 82 1015.3
20260506104608 42 17 1.7 8.7 0.00 0.00 0.00 82 1015.2